User: anonymous   Login
Location: Zagreb
(45.8000°N, 16.0000°E)
Time: 00:29:31
(UTC+01:00)
Language:

DUCHIFAT 1 - Orbit

View from above orbital plane
View from above orbital plane
View from above satellite
View from above satellite

Ground track
Ground track

The orbit data is extracted from the following two-line orbital elements,

1 40021U 14033M   20304.77899454  .00000624  00000-0  68926-4 0  9997
2 40021  97.9495 236.8868 0012220 195.7210 164.3630 14.91020668346053
Epoch (UTC): 30 October 2020 18:41:45
Eccentricity: 0.0012220
inclination: 97.9495°
perigee height: 586 km
apogee height: 603 km
right ascension of ascending node: 236.8868°
argument of perigee: 195.7210°
revolutions per day: 14.91020668
mean anomaly at epoch: 164.3630°
orbit number at epoch: 34605

The dashed part of the orbit path shows where the satellite is in the earth's shadow,  

DLR